Location: Bergheim
(50.9593°N, 6.6400°E)
Time: 09:45:28
(UTC+02:00)

ISS - Pass Details

Date: 23 May 2021
Orbit: 417 x 422 km, 51.6° (Epoch: 13 June)

Event Time Altitude Azimuth Distance (km) Brightness Sun altitude
Rises 23:45:30 0° 284° (WNW) 2,368 0.7 -14.7°
Reaches altitude 10° 23:47:36 10° 282° (WNW) 1,504 -0.5 -14.8°
Maximum altitude 23:50:57 68° 199° (SSW) 457 -3.8 -15.0°
Enters shadow 23:52:27 30° 124° (SE) 783 -2.9 -15.1°
